This is the latest recevied weather packets stored in our database for station/object OE5MMP-13. If no packets are shown the sender has not sent any weather packets the latest 10 day(s).
| Time | Temp. | Humidity | Pressure | Rain* | Wind** | Luminosity | Snow |
|---|---|---|---|---|---|---|---|
| 1788505992 | 21.67° C | 58% | 1021.4 hPa | 0 mm | - | 343 W/m² | - |
| 1788505391 | 21.67° C | 58% | 1021.7 hPa | 0 mm | - | 339 W/m² | - |
| 1788504791 | 21.67° C | 59% | 1021.7 hPa | 0 mm | - | 318 W/m² | - |
| 1788504191 | 21.11° C | 59% | 1021.6 hPa | 0 mm | - | 280 W/m² | - |
| 1788503591 | 21.11° C | 59% | 1021.6 hPa | 0 mm | - | 238 W/m² | - |
| 1788502991 | 21.11° C | 60% | 1021.8 hPa | 0 mm | - | 303 W/m² | - |
| 1788502391 | 21.11° C | 59% | 1021.9 hPa | 0 mm | - | 278 W/m² | - |
| 1788501791 | 21.11° C | 59% | 1021.9 hPa | 0 mm | - | 119 W/m² | - |
| 1788501191 | 20.56° C | 60% | 1021.7 hPa | 0 mm | - | 152 W/m² | - |
| 1788500591 | 20.56° C | 60% | 1021.6 hPa | 0 mm | - | 158 W/m² | - |
| 1788499999 | 20.56° C | 61% | 1021.6 hPa | 0 mm | - | 116 W/m² | - |
| 1788499391 | 20° C | 60% | 1021.6 hPa | 0 mm | - | 93 W/m² | - |
| 1788498791 | 20° C | 60% | 1021.5 hPa | 0 mm | - | 55 W/m² | - |
| 1788498191 | 20.56° C | 60% | 1021.6 hPa | 0 mm | - | 26 W/m² | - |
| 1788497591 | 20.56° C | 59% | 1021.6 hPa | 0 mm | - | 14 W/m² | - |
| 1788496991 | 20.56° C | 59% | 1021.7 hPa | 0 mm | - | 7 W/m² | - |
| 1788496391 | 20.56° C | 59% | 1021.7 hPa | 0 mm | - | 0 W/m² | - |
| 1788495791 | 20.56° C | 59% | 1021.7 hPa | 0 mm | - | 0 W/m² | - |
| 1788495191 | 20.56° C | 59% | 1021.8 hPa | 0 mm | - | 0 W/m² | - |
| 1788494591 | 20.56° C | 59% | 1021.8 hPa | 0 mm | - | 0 W/m² | - |
| 1788493991 | 20.56° C | 59% | 1022 hPa | 0 mm | - | 0 W/m² | - |
| 1788493391 | 20.56° C | 59% | 1022 hPa | 0 mm | - | 0 W/m² | - |
| 1788492802 | 20.56° C | 59% | 1022 hPa | 0 mm | - | 0 W/m² | - |
| 1788492190 | 21.11° C | 59% | 1022 hPa | 0 mm | - | 0 W/m² | - |
| 1788491590 | 21.11° C | 58% | 1022 hPa | 0 mm | - | 0 W/m² | - |
* Rain latest hour (hover to see other rain measurements)
** Current wind speed in m/s (hover to see current wind gust speed)